Weather History for Hurlburt Field, FL

Change the Weather History Date:

Tuesday, February 12, 2013

  Actual Average Record
Temperature  
Mean Temperature 62 °F -  
Max Temperature 69 °F 62 °F 73 °F (2000)
Min Temperature 56 °F 44 °F 26 °F (2011)
Degree Days  
Heating Degree Days 2    
Growing Degree Days 12 (Base 50)    
Moisture  
Dew Point 66 °F    
Average Humidity 100    
Maximum Humidity 100    
Minimum Humidity 100    
Precipitation  
Precipitation 0.00 in - - ()
Sea Level Pressure  
Sea Level Pressure 29.89 in    
Wind  
Wind Speed 10 mph (SE)    
Max Wind Speed 17 mph    
Max Gust Speed 25 mph    
Visibility 10 miles    
Events Rain    
Averages and records for this station are not official NWS values.
T = Trace of Precipitation, MM = Missing Value Source: NWS Daily Summary

Daily Weather History Graph

Daily Weather History Graph

Search for Another Location

Airport:

Trip Planner

Search our weather history database for the weather conditions in past years. The results will help you decide how hot, cold, wet, or windy it might be!

Date:

Astronomy

Feb. 12, 2013 Rise Set
Actual Time 6:29 AM CST 5:32 PM CST
Civil Twilight 6:04 AM CST 5:57 PM CST
Nautical Twilight 5:36 AM CST 6:25 PM CST
Astronomical Twilight 5:08 AM CST 6:53 PM CST
Moon 7:41 AM CST (2/12) 8:15 PM CST (2/12)
Length of Visible Light 11h 52m
Length of Day
11h 03m
Waxing Crescent, 7% of the Moon is Illuminated
Feb 12
Waxing Crescent
Feb 17
First Quarter
Feb 25
Full
Mar 4
Last Quarter
Mar 11
New

Hourly Weather History & Observations

Time (CST) Temp. Dew Point Humidity Pressure Visibility Wind Dir Wind Speed Gust Speed Precip Events Conditions
12:00 AM 60.8 °F 60.8 °F 100% 30.04 in 10.0 mi ENE 8.1 mph - N/A   Mostly Cloudy
1:00 AM 59.0 °F 59.0 °F 100% 30.31 in 7.0 mi North 6.9 mph - N/A   Overcast
1:56 AM 59.0 °F 59.0 °F 100% 30.03 in 10.0 mi NNW 4.6 mph - N/A   Mostly Cloudy
2:00 AM 59.0 °F 59.0 °F 100% 30.01 in 6.2 mi ENE 13.8 mph - N/A   Mostly Cloudy
2:55 AM 59.0 °F 59.0 °F 100% 30.02 in 6.2 mi NNE 2.3 mph - N/A   Mostly Cloudy
3:01 AM 59.0 °F 59.0 °F 100% 30.02 in 10.0 mi ENE 4.6 mph - N/A   Mostly Cloudy
3:55 AM 57.2 °F 57.2 °F 100% 30.01 in 6.2 mi NNE 5.8 mph - N/A   Mostly Cloudy
3:58 AM 56.3 °F 56.3 °F 100% 30.02 in 10.0 mi North 5.8 mph - N/A   Clear
4:48 AM 57.2 °F 57.2 °F 100% 30.01 in 10.0 mi North 9.2 mph - N/A   Mostly Cloudy
4:58 AM 57.6 °F 57.6 °F 100% 30.02 in 10.0 mi North 8.1 mph - N/A   Mostly Cloudy
5:08 AM 57.2 °F 57.2 °F 100% 30.01 in 10.0 mi North 8.1 mph - N/A   Overcast
5:13 AM 57.2 °F 57.2 °F 100% 30.01 in 10.0 mi NNE 6.9 mph - N/A   Overcast
5:53 AM 59.0 °F 59.0 °F 100% 30.01 in 10.0 mi NNE 8.1 mph - N/A   Overcast
5:58 AM 58.8 °F 58.8 °F 100% 30.03 in 10.0 mi NNE 8.1 mph - N/A   Overcast
6:23 AM 59.0 °F 59.0 °F 100% 30.02 in 10.0 mi NE 6.9 mph - N/A   Overcast
6:58 AM 59.4 °F 59.4 °F 100% 30.02 in 10.0 mi ENE 8.1 mph - N/A   Overcast
7:58 AM 60.4 °F 60.4 °F 100% 30.03 in 10.0 mi NE 5.8 mph - N/A   Overcast
8:48 AM 60.8 °F 60.8 °F 100% 30.00 in 10.0 mi ENE 8.1 mph - N/A   Overcast
8:58 AM 61.3 °F 61.3 °F 100% 30.02 in 10.0 mi ENE 6.9 mph - N/A   Overcast
9:38 AM 62.6 °F 62.6 °F 100% 30.01 in 10.0 mi ENE 8.1 mph - N/A   Overcast
9:41 AM 62.6 °F 62.6 °F 100% 30.00 in 10.0 mi NE 8.1 mph - N/A Rain Light Rain
9:46 AM 64.4 °F 64.4 °F 100% 30.00 in 10.0 mi NE 8.1 mph - N/A Rain Light Rain
9:50 AM 64.4 °F 64.4 °F 100% 30.00 in 10.0 mi NE 9.2 mph - N/A   Mostly Cloudy
9:58 AM 64.8 °F 64.8 °F 100% 30.01 in 10.0 mi NE 9.2 mph - 0.00 in   Scattered Clouds
10:14 AM 66.2 °F 66.2 °F 100% 29.99 in 10.0 mi NE 10.4 mph - N/A   Light Drizzle
10:23 AM 66.2 °F 66.2 °F 100% 30.00 in 10.0 mi NE 8.1 mph - N/A   Mostly Cloudy
10:28 AM 66.2 °F 66.2 °F 100% 29.99 in 10.0 mi ENE 8.1 mph - N/A   Overcast
10:58 AM 66.4 °F 66.4 °F 100% 30.00 in 10.0 mi ENE 5.8 mph - 0.00 in   Overcast
11:43 AM 66.2 °F 66.2 °F 100% 29.96 in 10.0 mi East 10.4 mph - N/A   Overcast
11:58 AM 68.2 °F 68.2 °F 100% 29.95 in 10.0 mi ESE 15.0 mph - N/A   Overcast
12:03 PM 68.0 °F 68.0 °F 100% 29.94 in 10.0 mi East 13.8 mph - N/A   Overcast
12:08 PM 68.0 °F 68.0 °F 100% 29.93 in 10.0 mi East 15.0 mph - N/A   Overcast
12:18 PM 68.0 °F 68.0 °F 100% 29.92 in 10.0 mi East 15.0 mph - N/A   Mostly Cloudy
12:28 PM 68.0 °F 68.0 °F 100% 29.92 in 10.0 mi East 13.8 mph - N/A   Overcast
12:53 PM 66.2 °F 66.2 °F 100% 29.91 in 10.0 mi East 11.5 mph - N/A   Overcast
12:58 PM 66.7 °F 66.7 °F 100% 29.92 in 10.0 mi East 10.4 mph - N/A   Overcast
1:31 PM 66.2 °F 66.2 °F 100% 29.87 in 10.0 mi East 6.9 mph - N/A Rain Light Rain
1:43 PM 66.2 °F 66.2 °F 100% 29.86 in 10.0 mi East 11.5 mph - N/A   Overcast
1:58 PM 66.4 °F 66.4 °F 100% 29.86 in 10.0 mi ESE 13.8 mph - 0.00 in   Overcast
2:08 PM 66.2 °F 66.2 °F 100% 29.84 in 10.0 mi ESE 12.7 mph - N/A   Overcast
2:47 PM 66.2 °F 66.2 °F 100% 29.81 in 10.0 mi ESE 12.7 mph 21.9 mph N/A   Overcast
2:58 PM 65.5 °F 65.5 °F 100% 29.81 in 10.0 mi ESE 15.0 mph - N/A   Overcast
3:21 PM 66.2 °F 66.2 °F 100% 29.79 in 10.0 mi SE 15.0 mph - N/A Rain Light Rain
3:34 PM 66.2 °F 66.2 °F 100% 29.78 in 10.0 mi SE 15.0 mph - N/A   Overcast
3:52 PM 66.2 °F 66.2 °F 100% 29.78 in 10.0 mi SSE 15.0 mph - N/A Rain Light Rain
3:58 PM 66.7 °F 66.7 °F 100% 29.79 in 10.0 mi SSE 17.3 mph 21.9 mph 0.00 in Rain Light Rain
4:12 PM 68.0 °F 68.0 °F 100% 29.78 in 7.0 mi South 15.0 mph 25.3 mph N/A   Overcast
4:42 PM 68.0 °F 68.0 °F 100% 29.79 in 8.0 mi South 13.8 mph - N/A   Overcast
4:58 PM 69.3 °F 69.3 °F 100% 29.81 in 9.0 mi South 15.0 mph 24.2 mph 0.00 in   Overcast
5:03 PM 69.8 °F 69.8 °F 100% 29.79 in 10.0 mi South 16.1 mph 24.2 mph N/A   Overcast
5:08 PM 69.8 °F 69.8 °F 100% 29.79 in 10.0 mi SSW 13.8 mph 24.2 mph N/A   Overcast
5:18 PM 69.8 °F 69.8 °F 100% 29.80 in 10.0 mi South 13.8 mph 19.6 mph N/A   Overcast
5:58 PM 69.6 °F 69.6 °F 100% 29.81 in 10.0 mi SSW 13.8 mph - N/A   Overcast
6:13 PM 69.8 °F 69.8 °F 100% 29.80 in 10.0 mi SSW 16.1 mph 20.7 mph N/A   Overcast
6:18 PM 69.8 °F 69.8 °F 100% 29.80 in 10.0 mi SSW 12.7 mph 20.7 mph N/A   Overcast
6:28 PM 69.8 °F 69.8 °F 100% 29.80 in 8.0 mi SSW 11.5 mph - N/A   Light Drizzle
6:31 PM 69.8 °F 69.8 °F 100% 29.80 in 8.0 mi SSW 12.7 mph - N/A   Overcast
6:56 PM 69.8 °F 69.8 °F 100% 29.81 in 10.0 mi SSW 10.4 mph 18.4 mph N/A   Overcast
6:58 PM 69.4 °F 69.4 °F 100% 29.82 in 10.0 mi SSW 10.4 mph 18.4 mph 0.00 in   Overcast
7:41 PM 69.8 °F 69.8 °F 100% 29.80 in 10.0 mi SSW 12.7 mph 23.0 mph N/A   Light Drizzle
7:58 PM 69.8 °F 69.8 °F 100% 29.81 in 9.0 mi SSW 11.5 mph 20.7 mph 0.00 in   Light Drizzle
8:14 PM 69.8 °F 69.8 °F 100% 29.80 in 10.0 mi SSW 12.7 mph - N/A   Overcast
8:24 PM 69.8 °F 69.8 °F 100% 29.80 in 10.0 mi SSW 10.4 mph - N/A   Overcast
8:39 PM 69.8 °F 69.8 °F 100% 29.80 in 10.0 mi SSW 11.5 mph - N/A   Overcast
8:44 PM 69.8 °F 69.8 °F 100% 29.80 in 10.0 mi SSW 12.7 mph 20.7 mph N/A   Overcast
8:49 PM 69.8 °F 69.8 °F 100% 29.81 in 10.0 mi SSW 12.7 mph 20.7 mph N/A   Overcast
8:54 PM 69.8 °F 69.8 °F 100% 29.81 in 10.0 mi SSW 12.7 mph 19.6 mph N/A   Overcast
8:58 PM 69.4 °F 69.4 °F 100% 29.82 in 10.0 mi SSW 10.4 mph - 0.00 in   Overcast
9:03 PM 69.8 °F 69.8 °F 100% 29.80 in 10.0 mi SSW 12.7 mph 18.4 mph N/A   Overcast
9:28 PM 69.8 °F 69.8 °F 100% 29.80 in 10.0 mi SSW 13.8 mph 20.7 mph N/A   Overcast
9:33 PM 69.8 °F 69.8 °F 100% 29.81 in 10.0 mi SSW 13.8 mph 19.6 mph N/A   Overcast
9:38 PM 69.8 °F 69.8 °F 100% 29.80 in 10.0 mi SSW 13.8 mph 19.6 mph N/A   Overcast
9:43 PM 69.8 °F 69.8 °F 100% 29.80 in 10.0 mi SSW 12.7 mph 21.9 mph N/A   Overcast
9:53 PM 69.8 °F 69.8 °F 100% 29.80 in 10.0 mi SSW 11.5 mph 20.7 mph N/A   Overcast
9:58 PM 69.3 °F 69.3 °F 100% 29.81 in 10.0 mi SSW 11.5 mph 20.7 mph N/A   Overcast
10:28 PM 69.8 °F 69.8 °F 100% 29.80 in 9.0 mi SSW 10.4 mph 19.6 mph N/A   Overcast
10:38 PM 69.8 °F 69.8 °F 100% 29.80 in 9.0 mi SW 11.5 mph 19.6 mph N/A   Overcast
10:58 PM 69.4 °F 69.4 °F 100% 29.81 in 9.0 mi SW 9.2 mph - N/A   Overcast
11:13 PM 69.8 °F 69.8 °F 100% 29.79 in 9.0 mi SW 10.4 mph - N/A Rain Light Rain
11:23 PM 69.8 °F 69.8 °F 100% 29.79 in 9.0 mi SSW 10.4 mph 17.3 mph N/A   Light Drizzle
11:24 PM 69.8 °F 69.8 °F 100% 29.79 in 9.0 mi SSW 9.2 mph 17.3 mph N/A   Overcast
11:58 PM 69.1 °F 69.1 °F 100% 29.79 in 8.0 mi SW 8.1 mph 17.3 mph 0.00 in   Overcast